Location: Deneb Observatory
(47.2267°N, 100.4953°W)
Time: 21:54:33
(UTC-05:00)

Amateur Radio Satellites - All Passes

Search period start: 27 July 2016 21:24
Search period end: 28 July 2016 21:24
Location: Deneb Observatory, 47.2267°N, 100.4953°W

Satellite Date Start Highest point End Downlink Frequencies (MHz)
Time Altitude Azimuth
COMPASS 1 27 Jul 21:31:59 21:36:08 64° 259° (WSW) 21:40:18 437.405
HO-68 27 Jul 21:33:05 21:39:55 46° 261° (W) 21:46:48 435.675
FUNcube-1 27 Jul 21:35:25 21:39:45 45° 70° (ENE) 21:44:08 145.935
ZACube-1 27 Jul 21:36:37 21:41:01 49° 71° (ENE) 21:45:28 437.345
PCSat 27 Jul 21:37:01 21:42:13 44° 312° (NW) 21:47:26 145.827
UWE-3 27 Jul 21:37:12 21:41:47 73° 73° (ENE) 21:46:28 435.000/436.395/437.385
AIST 2 27 Jul 21:41:57 21:45:34 30° 117° (ESE) 21:49:13 435.215
YUBILEINY 27 Jul 21:42:52 21:51:46 75° 78° (ENE) 22:00:35 435.215
M-CUBED/EXP-1 PRIME 27 Jul 21:48:49 21:52:22 36° 62° (ENE) 21:56:14 437.505
PRISM 27 Jul 21:55:29 21:59:11 32° 97° (E) 22:02:52 437.425
AAUSAT CUBESAT 2 27 Jul 22:00:01 22:03:56 39° 262° (W) 22:07:52 437.432
CUBEBUG 2 27 Jul 22:00:50 22:05:18 48° 262° (W) 22:09:54 437.445
CANX-2 27 Jul 22:08:00 22:10:17 14° 271° (W) 22:12:35 2200.000
AUBIESAT-1 27 Jul 22:14:05 22:17:52 54° 66° (ENE) 22:22:00 437.475
Oscar 11 27 Jul 22:17:11 22:21:30 64° 259° (W) 22:25:51 145.826/435.025
DELFI C3 27 Jul 22:17:14 22:21:08 57° 73° (ENE) 22:25:03 145.870
PHONESAT 2.4 27 Jul 22:20:52 22:22:02 12° 202° (SSW) 22:23:11 2401.200-2431.200
CUTE 1.7 + AOD 2 27 Jul 22:22:10 22:23:41 12° 272° (W) 22:25:14 437.475
STRAND 1 27 Jul 22:37:56 22:41:43 21° 300° (WNW) 22:45:29 437.568
HUMSAT D 27 Jul 22:45:41 22:49:56 59° 73° (ENE) 22:54:11 437.325/437.525
ISS 27 Jul 22:46:48 22:49:58 51° 148° (SSE) 22:53:09 145.825
O/OREOS (USA 219) 27 Jul 22:51:25 22:55:24 31° 305° (NW) 22:59:25 437.305
AO-85 27 Jul 22:52:08 22:56:37 56° 48° (NE) 23:00:43 145.980
TIGRISAT 27 Jul 22:57:48 23:00:33 15° 89° (E) 23:03:15 435.000
AISAT 27 Jul 22:58:41 23:00:19 12° 57° (ENE) 23:01:58 437.250
Cosmos 2504 27 Jul 23:02:13 23:10:32 80° 80° (E) 23:18:11 435.465 / 435.565
Cosmos 2491 27 Jul 23:09:23 23:18:07 81° 281° (W) 23:26:53 435.465 / 435.565
FUNcube-1 27 Jul 23:12:40 23:16:12 22° 268° (W) 23:19:46 145.935
UNISAT 6 27 Jul 23:13:41 23:17:24 23° 92° (E) 23:21:02 437.425
ZACube-1 27 Jul 23:14:10 23:17:34 20° 269° (W) 23:21:00 437.345
UWE-3 27 Jul 23:16:20 23:18:46 14° 272° (W) 23:21:15 435.000/436.395/437.385
AIST 2 27 Jul 23:20:11 23:23:59 35° 316° (NW) 23:27:51 435.215
M-CUBED/EXP-1 PRIME 27 Jul 23:23:55 23:27:02 23° 262° (W) 23:30:21 437.505
PCSat 27 Jul 23:24:16 23:27:04 14° 335° (NNW) 23:29:52 145.827
50 SAT 27 Jul 23:29:59 23:32:31 18° 64° (ENE) 23:35:03 437.505
PRISM 27 Jul 23:30:59 23:34:24 26° 294° (WNW) 23:37:48 437.425
ESTCUBE 1 27 Jul 23:33:30 23:37:36 37° 68° (ENE) 23:41:45 437.505/2401.250
SPROUT 27 Jul 23:39:49 23:41:55 13° 59° (ENE) 23:44:01 437.525
YUBILEINY 27 Jul 23:40:43 23:47:43 27° 280° (W) 23:54:40 435.215
CUBEBUG 1 27 Jul 23:46:44 23:50:36 33° 68° (ENE) 23:54:31 437.445
VELOX 1 27 Jul 23:47:26 23:51:17 31° 66° (ENE) 23:55:10 145.980
AUBIESAT-1 27 Jul 23:50:21 23:52:45 16° 265° (W) 23:55:17 437.475
ANTELSAT 27 Jul 23:51:36 23:56:10 52° 100° (E) 00:00:36 437.575/2403.000
DELFI C3 27 Jul 23:54:21 23:56:21 13° 270° (W) 23:58:23 145.870
NANOSAT C BR1 28 Jul 00:15:41 00:18:14 15° 90° (E) 00:20:45 145.865
DUCHIFAT 1 28 Jul 00:19:34 00:22:10 16° 90° (E) 00:24:45 145.980
ISS 28 Jul 00:23:19 00:26:28 44° 347° (NNW) 00:29:37 145.825
HUMSAT D 28 Jul 00:23:22 00:25:56 15° 270° (W) 00:28:30 437.325/437.525
DX 1 28 Jul 00:28:56 00:33:10 59° 72° (ENE) 00:37:28 434.975-435.025
AISAT 28 Jul 00:31:43 00:36:05 87° 81° (E) 00:40:32 437.250
TISAT 1 28 Jul 00:32:58 00:34:42 12° 58° (ENE) 00:36:26 437.305
TIGRISAT 28 Jul 00:33:05 00:37:43 66° 287° (WNW) 00:42:14 435.000
AO-85 28 Jul 00:33:32 00:36:35 19° 249° (WSW) 00:39:29 145.980
QB50P1 28 Jul 00:37:43 00:41:22 26° 94° (E) 00:44:59 145.935-145.965
JAS-2 28 Jul 00:40:32 00:42:06 11° 87° (E) 00:43:40 435.910
UKube-1 28 Jul 00:41:10 00:45:24 64° 73° (ENE) 00:49:41 .
POPSAT HIP 1 28 Jul 00:44:08 00:47:57 30° 96° (E) 00:51:44 437.405
UNISAT 6 28 Jul 00:49:53 00:54:19 43° 290° (WNW) 00:58:38 437.425
AIST 1 28 Jul 00:56:34 01:00:44 44° 76° (ENE) 01:04:54
Cosmos 2504 28 Jul 00:56:54 01:02:51 23° 283° (WNW) 01:08:32 435.465 / 435.565
50 SAT 28 Jul 01:02:27 01:05:54 38° 262° (W) 01:09:21 437.505
AIST 2 28 Jul 01:02:58 01:03:40 10° 338° (NNW) 01:04:23 435.215
QB50P2 28 Jul 01:05:01 01:09:14 53° 100° (E) 01:13:26 145.880/145.840
POLYITAN 1 28 Jul 01:07:39 01:11:53 54° 100° (E) 01:16:05 437.675
Cosmos 2491 28 Jul 01:10:24 01:16:32 21° 304° (NW) 01:22:42 435.465 / 435.565
ESTCUBE 1 28 Jul 01:10:45 01:14:31 26° 266° (W) 01:18:17 437.505/2401.250
SPROUT 28 Jul 01:12:59 01:17:16 77° 256° (WSW) 01:21:36 437.525
CUBEBUG 1 28 Jul 01:23:16 01:26:56 27° 265° (W) 01:30:37 437.445
VELOX 1 28 Jul 01:23:52 01:27:44 30° 264° (W) 01:31:38 145.980
ANTELSAT 28 Jul 01:29:04 01:32:31 21° 298° (WNW) 01:35:54 437.575/2403.000
ITUPSAT 1 28 Jul 01:38:38 01:41:11 15° 57° (ENE) 01:43:44 437.325
NANOSAT C BR1 28 Jul 01:50:07 01:54:21 58° 288° (WNW) 01:58:32 145.865
GONETS M04 28 Jul 01:51:06 01:58:13 26° 60° (ENE) 02:05:18
DUCHIFAT 1 28 Jul 01:54:01 01:58:13 57° 288° (WNW) 02:02:24 145.980
Oscar 19 28 Jul 01:58:15 02:01:20 16° 89° (E) 02:04:24 437.125/150
Cosmos 2499 28 Jul 01:59:58 02:05:21 19° 56° (NE) 02:10:28 435.465 / 435.565
ISS 28 Jul 02:00:13 02:03:19 38° 7° (N) 02:06:24 145.825
BUGSAT 1 28 Jul 02:05:06 02:09:23 88° 101° (E) 02:13:39 437.445
TISAT 1 28 Jul 02:05:31 02:09:43 84° 256° (WSW) 02:13:59 437.305
BEESAT 3 28 Jul 02:06:39 02:08:58 15° 31° (NNE) 02:11:18 437.485
DX 1 28 Jul 02:07:11 02:09:45 15° 269° (W) 02:12:21 434.975-435.025
AISAT 28 Jul 02:12:23 02:13:13 10° 273° (W) 02:14:04 437.250
QB50P1 28 Jul 02:13:19 02:17:11 33° 292° (WNW) 02:21:02 145.935-145.965
BEESAT 2 28 Jul 02:14:45 02:16:26 12° 27° (NNE) 02:18:07 435.950
UKube-1 28 Jul 02:19:33 02:21:54 14° 270° (W) 02:24:14 .
POPSAT HIP 1 28 Jul 02:19:57 02:23:42 29° 293° (WNW) 02:27:24 437.405
JAS-2 28 Jul 02:22:41 02:27:59 81° 104° (ESE) 02:33:41 435.910
SWISSCUBE 28 Jul 02:28:55 02:33:24 41° 68° (ENE) 02:37:55 437.505
AIST 1 28 Jul 02:34:55 02:38:01 19° 274° (W) 02:41:06
QB50P2 28 Jul 02:41:43 02:44:40 18° 298° (WNW) 02:47:37 145.880/145.840
POLYITAN 1 28 Jul 02:44:23 02:47:19 18° 298° (WNW) 02:50:14 437.675
BEESAT 28 Jul 02:49:57 02:54:38 59° 71° (ENE) 02:59:22 436.000
PCSat 28 Jul 02:55:39 02:59:00 16° 29° (NNE) 03:02:22 145.827
ITUPSAT 1 28 Jul 03:13:32 03:18:21 87° 255° (WSW) 03:23:11 437.325
Gurwin Techsat 1B 28 Jul 03:23:54 03:28:58 41° 98° (E) 03:33:57 435.225
MOZHAYETS 4 28 Jul 03:24:38 03:27:54 19° 62° (ENE) 03:31:11
ITAMSAT 1 28 Jul 03:34:10 03:37:40 18° 90° (E) 03:41:08 435.822/435.867
Oscar 19 28 Jul 03:36:03 03:41:14 77° 287° (WNW) 03:46:25 437.125/150
ISS 28 Jul 03:36:42 03:39:58 82° 207° (SSW) 03:43:14 145.825
BUGSAT 1 28 Jul 03:42:30 03:44:07 12° 302° (WNW) 03:45:43 437.445
BEESAT 3 28 Jul 03:43:21 03:47:21 75° 52° (NE) 03:51:18 437.485
GONETS M04 28 Jul 03:47:19 03:56:10 83° 264° (W) 04:05:00
BEESAT 2 28 Jul 03:51:15 03:55:11 51° 48° (NE) 03:59:06 435.950
Cosmos 2499 28 Jul 03:51:59 03:59:59 83° 80° (E) 04:07:20 435.465 / 435.565
SWISSCUBE 28 Jul 04:07:21 04:11:21 26° 266° (W) 04:15:21 437.505
JAS-2 28 Jul 04:09:18 04:12:33 17° 303° (WNW) 04:15:55 435.910
KKS-1 28 Jul 04:18:59 04:23:19 56° 72° (ENE) 04:27:43 437.445
AIST 2 28 Jul 04:22:32 04:24:38 13° 28° (NNE) 04:26:45 435.215
BEESAT 28 Jul 04:29:30 04:32:48 18° 269° (W) 04:36:08 436.000
PCSat 28 Jul 04:38:14 04:43:37 57° 52° (NE) 04:48:57 145.827
AO-7 28 Jul 04:46:43 04:54:22 38° 97° (E) 05:01:54 29.400- 29.500
CUBESAT XI-V 28 Jul 04:46:48 04:49:47 17° 61° (ENE) 04:52:48 437.345
STARS 28 Jul 04:55:03 04:59:24 68° 73° (ENE) 05:03:49 437.465
CUSAT 1 28 Jul 04:55:17 04:59:09 83° 281° (W) 05:02:13 437.405
ITUPSAT 1 28 Jul 04:55:27 04:56:54 11° 273° (W) 04:58:21 437.325
MOZHAYETS 4 28 Jul 05:00:07 05:04:41 57° 260° (W) 05:09:15
Gurwin Techsat 1B 28 Jul 05:04:07 05:08:47 32° 296° (WNW) 05:13:25 435.225
ITAMSAT 1 28 Jul 05:12:28 05:17:39 68° 288° (WNW) 05:22:47 435.822/435.867
ISS 28 Jul 05:14:01 05:15:58 15° 224° (SW) 05:17:55 145.825
Oscar 19 28 Jul 05:17:21 05:19:43 13° 306° (NW) 05:22:06 437.125/150
BEESAT 3 28 Jul 05:22:39 05:24:28 13° 250° (WSW) 05:26:16 437.485
DANDE 28 Jul 05:25:35 05:30:53 75° 99° (E) 05:34:50 436.750
BEESAT 2 28 Jul 05:29:49 05:32:42 19° 246° (WSW) 05:35:33 435.950
HORYU 2 28 Jul 05:32:27 05:34:40 13° 89° (E) 05:36:51 437.375
O/OREOS (USA 219) 28 Jul 05:39:52 05:42:54 17° 47° (NE) 05:45:56 437.305
GONETS M04 28 Jul 05:45:58 05:51:36 19° 285° (WNW) 05:57:15
Cosmos 2499 28 Jul 05:46:33 05:51:59 21° 283° (WNW) 05:57:11 435.465 / 435.565
KKS-1 28 Jul 05:57:22 06:00:15 17° 269° (W) 06:03:10 437.445
AIST 2 28 Jul 05:59:54 06:04:01 56° 49° (NE) 06:08:07 435.215
RS-15 28 Jul 06:00:26 06:07:53 20° 96° (E) 06:15:31 29.354- 29.394
CUBESAT XI-V 28 Jul 06:22:08 06:26:43 64° 259° (WSW) 06:31:18 437.345
PCSat 28 Jul 06:22:14 06:26:40 26° 251° (WSW) 06:31:04 145.827
BRITE-PL 28 Jul 06:24:25 06:27:20 16° 90° (E) 06:30:21 437.365/2234.400
STARS 28 Jul 06:33:56 06:36:15 14° 271° (W) 06:38:34 437.465
Cubesat XI-IV 28 Jul 06:37:19 06:39:10 12° 86° (E) 06:41:02 437.490
AO-7 28 Jul 06:39:20 06:47:28 58° 297° (WNW) 06:55:33 29.400- 29.500
STRAND 1 28 Jul 06:39:42 06:43:18 19° 59° (ENE) 06:46:54 437.568
ITAMSAT 1 28 Jul 06:54:17 06:56:11 12° 308° (NW) 06:58:04 435.822/435.867
CUTE-I 28 Jul 06:59:08 07:02:54 19° 90° (E) 07:06:37 437.470
HORYU 2 28 Jul 07:07:15 07:11:44 72° 287° (WNW) 07:16:11 437.375
DOVE 4 28 Jul 07:11:06 07:11:56 10° 85° (E) 07:12:46 437.250
DANDE 28 Jul 07:11:59 07:13:45 12° 292° (WNW) 07:15:22 436.750
NOAA 15 28 Jul 07:15:12 07:19:56 33° 96° (E) 07:24:40 137.62
O/OREOS (USA 219) 28 Jul 07:18:19 07:22:51 74° 247° (WSW) 07:27:23 437.305
GOMX 1 28 Jul 07:20:29 07:24:43 26° 93° (E) 07:29:07 467.674
Cosmos 2491 28 Jul 07:20:41 07:25:28 15° 50° (NE) 07:30:14 435.465 / 435.565
AIST 2 28 Jul 07:39:11 07:42:08 19° 247° (WSW) 07:45:04 435.215
NOAA 18 28 Jul 07:43:18 07:48:35 43° 99° (E) 07:53:49 137.9125
BRITE-PL 28 Jul 08:01:27 08:06:14 73° 285° (WNW) 08:11:23 437.365/2234.400
RS-15 28 Jul 08:06:35 08:18:01 74° 120° (ESE) 08:30:07 29.354- 29.394
LilacSat-2 28 Jul 08:11:54 08:15:49 87° 280° (W) 08:19:39 437.200
Cubesat XI-IV 28 Jul 08:14:43 08:20:07 80° 104° (ESE) 08:25:28 437.490
STRAND 1 28 Jul 08:16:50 08:21:58 70° 258° (WSW) 08:27:08 437.568
CUTE 1.7 + AOD 2 28 Jul 08:27:35 08:28:23 10° 87° (E) 08:29:10 437.475
AO-7 28 Jul 08:33:35 08:38:34 18° 320° (NW) 08:43:33 29.400- 29.500
CUTE-I 28 Jul 08:38:07 08:43:27 66° 288° (WNW) 08:48:42 437.470
DOVE 4 28 Jul 08:45:16 08:50:25 73° 102° (ESE) 08:55:43 437.250
HORYU 2 28 Jul 08:46:47 08:47:27 10° 306° (NW) 08:48:08 437.375
PRISM 28 Jul 08:47:46 08:51:28 35° 68° (ENE) 08:55:12 437.425
CINEMA 3 28 Jul 08:49:18 08:53:35 27° 93° (E) 08:57:48 145.822/145.860
NOAA 15 28 Jul 08:54:56 08:59:46 38° 294° (WNW) 09:04:35 137.62
YUBILEINY 28 Jul 08:55:23 09:00:33 17° 73° (ENE) 09:05:45 435.215
HO-68 28 Jul 08:57:08 09:03:26 32° 94° (E) 09:09:41 435.675
GOMX 1 28 Jul 08:58:09 09:02:57 47° 289° (WNW) 09:08:00 467.674
SEEDS 28 Jul 09:02:51 09:05:46 18° 91° (E) 09:08:40 437.485
COMPASS 1 28 Jul 09:12:42 09:15:20 16° 91° (E) 09:17:57 437.405
SO-50 28 Jul 09:13:41 09:18:31 67° 124° (SE) 09:23:20 436.795
Cosmos 2491 28 Jul 09:15:48 09:24:30 62° 75° (ENE) 09:33:10 435.465 / 435.565
ANTELSAT 28 Jul 09:21:09 09:21:40 10° 54° (NE) 09:22:11 437.575/2403.000
NOAA 18 28 Jul 09:24:14 09:29:07 33° 297° (WNW) 09:33:58 137.9125
UWE-3 28 Jul 09:25:43 09:27:47 13° 87° (E) 09:29:48 435.000/436.395/437.385
AAUSAT CUBESAT 2 28 Jul 09:39:16 09:42:40 24° 94° (E) 09:46:02 437.432
BRITE-PL 28 Jul 09:42:29 09:44:01 11° 303° (WNW) 09:45:34 437.365/2234.400
CANX-2 28 Jul 09:47:22 09:51:37 83° 103° (ESE) 09:55:49 2200.000
CUBEBUG 2 28 Jul 09:48:44 09:52:56 31° 94° (E) 09:57:02 437.445
Cosmos 2504 28 Jul 09:55:19 09:59:23 14° 71° (ENE) 10:03:26 435.465 / 435.565
Cubesat XI-IV 28 Jul 09:56:02 09:59:34 18° 303° (WNW) 10:03:03 437.490
TIGRISAT 28 Jul 09:59:03 10:02:31 21° 62° (ENE) 10:06:03 435.000
CUTE 1.7 + AOD 2 28 Jul 10:00:34 10:04:49 82° 285° (WNW) 10:09:01 437.475
Oscar 11 28 Jul 10:02:04 10:05:08 19° 91° (E) 10:08:10 145.826/435.025
UNISAT 6 28 Jul 10:15:07 10:19:10 30° 66° (ENE) 10:23:17 437.425
RS-15 28 Jul 10:20:11 10:31:28 48° 328° (NNW) 10:43:16 29.354- 29.394
CUTE-I 28 Jul 10:20:31 10:22:30 12° 308° (NW) 10:24:29 437.470
PRISM 28 Jul 10:23:38 10:26:52 23° 266° (W) 10:30:08 437.425
DOVE 4 28 Jul 10:24:04 10:27:36 19° 299° (WNW) 10:31:12 437.250
CINEMA 3 28 Jul 10:26:05 10:30:51 43° 291° (WNW) 10:35:33 145.822/145.860
SEEDS 28 Jul 10:37:43 10:41:44 46° 289° (WNW) 10:45:42 437.485
HO-68 28 Jul 10:44:29 10:51:32 59° 294° (WNW) 10:58:32 435.675
YUBILEINY 28 Jul 10:47:02 10:55:48 77° 95° (E) 11:04:38 435.215
COMPASS 1 28 Jul 10:47:10 10:51:12 50° 288° (WNW) 10:55:11 437.405
ANTELSAT 28 Jul 10:52:51 10:57:28 66° 73° (ENE) 11:02:09 437.575/2403.000
SO-50 28 Jul 10:55:21 10:59:26 26° 324° (NW) 11:03:29 436.795
FUNcube-1 28 Jul 10:56:22 11:00:50 61° 100° (E) 11:05:10 145.935
ZACube-1 28 Jul 10:57:58 11:02:30 68° 101° (ESE) 11:06:54 437.345
M-CUBED/EXP-1 PRIME 28 Jul 10:59:22 11:02:50 20° 97° (E) 11:06:17 437.505
UWE-3 28 Jul 11:00:12 11:04:51 79° 285° (WNW) 11:09:22 435.000/436.395/437.385
NANOSAT C BR1 28 Jul 11:10:50 11:13:44 18° 62° (ENE) 11:16:37 145.865
Cosmos 2491 28 Jul 11:13:19 11:20:50 34° 277° (W) 11:28:23 435.465 / 435.565
DUCHIFAT 1 28 Jul 11:14:27 11:17:22 18° 62° (ENE) 11:20:18 145.980
AAUSAT CUBESAT 2 28 Jul 11:14:31 11:18:12 33° 292° (WNW) 11:21:54 437.432
AUBIESAT-1 28 Jul 11:24:01 11:28:01 28° 100° (E) 11:31:59 437.475
CANX-2 28 Jul 11:25:10 11:26:51 12° 301° (WNW) 11:28:31 2200.000
CUBEBUG 2 28 Jul 11:25:17 11:29:33 34° 293° (WNW) 11:33:43 437.445
BUGSAT 1 28 Jul 11:25:38 11:26:54 11° 57° (ENE) 11:28:11 437.445
DELFI C3 28 Jul 11:26:22 11:30:17 62° 101° (E) 11:34:11 145.870
QB50P1 28 Jul 11:33:01 11:36:43 30° 67° (ENE) 11:40:28 145.935-145.965
TIGRISAT 28 Jul 11:34:18 11:38:51 53° 260° (W) 11:43:29 435.000
Oscar 11 28 Jul 11:37:21 11:41:31 48° 289° (WNW) 11:45:39 145.826/435.025
CUTE 1.7 + AOD 2 28 Jul 11:39:19 11:39:55 10° 303° (WNW) 11:40:33 437.475
POPSAT HIP 1 28 Jul 11:39:25 11:43:16 34° 68° (ENE) 11:47:09 437.405
Cosmos 2504 28 Jul 11:42:18 11:51:01 64° 92° (E) 11:59:38 435.465 / 435.565
UNISAT 6 28 Jul 11:51:32 11:55:47 35° 264° (W) 12:00:07 437.425
QB50P2 28 Jul 12:00:17 12:04:28 59° 73° (ENE) 12:08:42 145.880/145.840
HUMSAT D 28 Jul 12:01:32 12:05:45 73° 102° (ESE) 12:09:52 437.325/437.525
POLYITAN 1 28 Jul 12:02:54 12:07:07 60° 72° (ENE) 12:11:22 437.675
AISAT 28 Jul 12:20:16 12:22:29 13° 89° (E) 12:24:43 437.250
50 SAT 28 Jul 12:29:07 12:30:55 13° 91° (E) 12:32:42 437.505
ANTELSAT 28 Jul 12:31:48 12:34:38 16° 271° (W) 12:37:31 437.575/2403.000
M-CUBED/EXP-1 PRIME 28 Jul 12:33:00 12:37:37 58° 294° (WNW) 12:42:14 437.505
FUNcube-1 28 Jul 12:33:40 12:36:36 17° 299° (WNW) 12:39:30 145.935
HO-68 28 Jul 12:34:03 12:37:49 15° 315° (NW) 12:41:37 435.675
ZACube-1 28 Jul 12:35:30 12:38:15 16° 300° (WNW) 12:40:58 437.345
RS-15 28 Jul 12:37:04 12:47:45 34° 1° (N) 12:58:40 29.354- 29.394
JAS-2 28 Jul 12:38:18 12:43:54 49° 69° (ENE) 12:49:03 435.910
UWE-3 28 Jul 12:38:58 12:40:29 11° 304° (NW) 12:41:59 435.000/436.395/437.385
SO-50 28 Jul 12:40:20 12:41:34 11° 347° (NNW) 12:42:48 436.795
NANOSAT C BR1 28 Jul 12:44:56 12:49:04 53° 260° (W) 12:53:17 145.865
YUBILEINY 28 Jul 12:46:16 12:53:34 28° 298° (WNW) 13:00:58 435.215
DUCHIFAT 1 28 Jul 12:48:34 12:52:42 52° 260° (W) 12:56:52 145.980
SPROUT 28 Jul 12:57:04 12:59:33 15° 90° (E) 13:02:03 437.525
BUGSAT 1 28 Jul 12:57:29 13:01:35 89° 259° (W) 13:05:47 437.445
AUBIESAT-1 28 Jul 12:58:11 13:02:32 40° 297° (WNW) 13:06:51 437.475
ESTCUBE 1 28 Jul 12:59:03 13:03:27 51° 100° (E) 13:07:49 437.505/2401.250
DELFI C3 28 Jul 13:02:37 13:04:40 14° 299° (WNW) 13:06:43 145.870
CUBEBUG 1 28 Jul 13:07:46 13:11:59 43° 99° (E) 13:16:12 437.445
QB50P1 28 Jul 13:08:44 13:12:28 29° 265° (W) 13:16:14 145.935-145.965
VELOX 1 28 Jul 13:10:08 13:14:19 39° 98° (E) 13:18:29 145.980
Gurwin Techsat 1B 28 Jul 13:11:10 13:14:10 15° 55° (NE) 13:17:10 435.225
AO-85 28 Jul 13:12:48 13:13:47 10° 106° (ESE) 13:14:46 145.980
POPSAT HIP 1 28 Jul 13:15:32 13:19:06 26° 266° (W) 13:22:43 437.405
Oscar 19 28 Jul 13:17:38 13:22:06 32° 64° (ENE) 13:26:36 437.125/150
AIST 1 28 Jul 13:29:51 13:33:07 22° 87° (E) 13:36:23
Cosmos 2504 28 Jul 13:36:58 13:44:56 36° 294° (WNW) 13:52:49 435.465 / 435.565
QB50P2 28 Jul 13:38:10 13:40:40 15° 270° (W) 13:43:12 145.880/145.840
HUMSAT D 28 Jul 13:38:43 13:40:48 14° 301° (WNW) 13:42:53 437.325/437.525
POLYITAN 1 28 Jul 13:40:51 13:43:19 15° 270° (W) 13:45:48 437.675
TISAT 1 28 Jul 13:48:06 13:49:55 12° 89° (E) 13:51:43 437.305
DX 1 28 Jul 13:49:51 13:54:15 73° 103° (ESE) 13:58:37 434.975-435.025
AISAT 28 Jul 13:55:00 13:59:28 72° 287° (WNW) 14:03:55 437.250
AO-7 28 Jul 14:00:09 14:05:39 20° 42° (NE) 14:11:10 29.400- 29.500
UKube-1 28 Jul 14:00:55 14:05:17 76° 104° (ESE) 14:09:36 .
50 SAT 28 Jul 14:01:21 14:04:50 47° 288° (WNW) 14:08:18 437.505
M-CUBED/EXP-1 PRIME 28 Jul 14:10:26 14:11:13 10° 312° (NW) 14:12:00 437.505
SO-50 28 Jul 14:23:02 14:24:17 11° 13° (NNE) 14:25:31 436.795
JAS-2 28 Jul 14:24:22 14:29:14 26° 265° (W) 14:33:47 435.910
SPROUT 28 Jul 14:31:38 14:35:55 61° 287° (WNW) 14:40:10 437.525
ESTCUBE 1 28 Jul 14:36:39 14:39:55 20° 298° (WNW) 14:43:11 437.505/2401.250
Cosmos 2499 28 Jul 14:43:23 14:47:25 14° 72° (ENE) 14:51:24 435.465 / 435.565
CUBEBUG 1 28 Jul 14:44:36 14:48:02 23° 296° (WNW) 14:51:28 437.445
VELOX 1 28 Jul 14:46:58 14:50:36 25° 296° (WNW) 14:54:13 145.980
Gurwin Techsat 1B 28 Jul 14:48:01 14:53:21 86° 74° (ENE) 14:58:43 435.225
AO-85 28 Jul 14:48:08 14:53:26 65° 123° (ESE) 14:58:29 145.980
BEESAT 28 Jul 14:49:10 14:50:44 11° 87° (E) 14:52:19 436.000
RS-15 28 Jul 14:52:01 15:03:55 51° 34° (NE) 15:15:51 29.354- 29.394
ITAMSAT 1 28 Jul 14:54:39 14:59:28 38° 66° (ENE) 15:04:16 435.822/435.867
Oscar 19 28 Jul 14:56:34 15:01:20 38° 263° (W) 15:06:08 437.125/150
GONETS M04 28 Jul 14:58:02 15:04:35 25° 78° (ENE) 15:11:08
AIST 1 28 Jul 15:06:33 15:10:29 36° 286° (WNW) 15:14:28
ITUPSAT 1 28 Jul 15:11:46 15:15:10 19° 91° (E) 15:18:32 437.325
TISAT 1 28 Jul 15:21:47 15:26:03 72° 287° (WNW) 15:30:18 437.305
CUSAT 1 28 Jul 15:23:25 15:26:21 70° 78° (ENE) 15:29:57 437.405
DX 1 28 Jul 15:27:28 15:29:54 15° 301° (WNW) 15:32:20 434.975-435.025
AISAT 28 Jul 15:34:47 15:35:07 10° 305° (NW) 15:35:27 437.250
UKube-1 28 Jul 15:38:30 15:40:46 14° 301° (WNW) 15:43:02 .
AO-7 28 Jul 15:48:42 15:56:57 66° 65° (ENE) 16:05:15 29.400- 29.500
DANDE 28 Jul 16:00:24 16:02:57 49° 77° (ENE) 16:05:42 436.750
SO-50 28 Jul 16:02:22 16:06:23 27° 37° (NE) 16:10:17 436.795
SWISSCUBE 28 Jul 16:03:13 16:07:58 64° 102° (ESE) 16:12:40 437.505
BEESAT 28 Jul 16:24:25 16:29:14 90° 166° (SSE) 16:33:59 436.000
AO-85 28 Jul 16:29:45 16:34:18 29° 322° (NW) 16:38:38 145.980
Cosmos 2499 28 Jul 16:30:10 16:38:52 64° 93° (E) 16:47:19 435.465 / 435.565
Gurwin Techsat 1B 28 Jul 16:31:14 16:34:00 14° 273° (W) 16:36:48 435.225
HORYU 2 28 Jul 16:33:01 16:36:16 20° 61° (ENE) 16:39:31 437.375
ITAMSAT 1 28 Jul 16:34:17 16:38:58 33° 264° (W) 16:43:41 435.822/435.867
ITUPSAT 1 28 Jul 16:48:40 16:53:21 56° 290° (WNW) 16:58:00 437.325
GONETS M04 28 Jul 16:51:41 17:00:24 81° 281° (W) 17:09:11
MOZHAYETS 4 28 Jul 16:52:16 16:56:09 26° 94° (E) 16:59:59
NOAA 15 28 Jul 17:02:23 17:04:34 13° 53° (NE) 17:06:46 137.62
RS-15 28 Jul 17:05:01 17:17:15 70° 241° (WSW) 17:29:19 29.354- 29.394
NOAA 18 28 Jul 17:34:23 17:38:14 20° 56° (ENE) 17:42:07 137.9125
BRITE-PL 28 Jul 17:39:02 17:42:05 20° 63° (ENE) 17:45:13 437.365/2234.400
SWISSCUBE 28 Jul 17:42:02 17:45:18 19° 300° (WNW) 17:48:34 437.505
SO-50 28 Jul 17:42:37 17:47:12 58° 238° (WSW) 17:51:38 436.795
AO-7 28 Jul 17:42:58 17:50:16 33° 265° (W) 17:57:37 29.400- 29.500
KKS-1 28 Jul 17:43:01 17:47:33 74° 104° (ESE) 17:52:02 437.445
Cubesat XI-IV 28 Jul 18:01:02 18:05:33 28° 62° (ENE) 18:10:06 437.490
PHONESAT 2.4 28 Jul 18:02:52 18:04:45 15° 163° (SSE) 18:06:38 2401.200-2431.200
BEESAT 28 Jul 18:03:55 18:06:19 14° 304° (WNW) 18:08:42 436.000
HORYU 2 28 Jul 18:08:03 18:12:28 53° 260° (W) 18:16:53 437.375
AO-85 28 Jul 18:14:45 18:16:22 11° 345° (NNW) 18:17:57 145.980
CUBESAT XI-V 28 Jul 18:15:50 18:19:39 25° 93° (E) 18:23:27 437.345
STARS 28 Jul 18:17:26 18:21:55 85° 101° (ESE) 18:26:22 437.465
DOVE 4 28 Jul 18:19:17 18:21:24 13° 57° (ENE) 18:23:33 437.250
CUTE-I 28 Jul 18:23:32 18:28:33 42° 67° (ENE) 18:33:37 437.470
Cosmos 2499 28 Jul 18:24:39 18:32:32 35° 294° (WNW) 18:40:12 435.465 / 435.565
MOZHAYETS 4 28 Jul 18:29:11 18:33:24 37° 292° (WNW) 18:37:35
GOMX 1 28 Jul 18:32:16 18:36:01 31° 67° (ENE) 18:39:57 467.674
NOAA 15 28 Jul 18:38:13 18:43:26 72° 72° (ENE) 18:48:41 137.62
GONETS M04 28 Jul 18:52:41 18:58:49 21° 304° (NW) 19:05:00
LilacSat-2 28 Jul 18:56:25 19:00:17 71° 75° (ENE) 19:04:11 437.200
YUBILEINY 28 Jul 18:59:56 19:02:10 11° 43° (NE) 19:04:23 435.215
CANX-2 28 Jul 19:10:36 19:11:49 11° 58° (ENE) 19:13:02 2200.000
NOAA 18 28 Jul 19:12:44 19:18:17 78° 255° (WSW) 19:23:53 137.9125
BEESAT 3 28 Jul 19:13:54 19:17:39 45° 121° (ESE) 19:21:27 437.485
BRITE-PL 28 Jul 19:16:26 19:20:21 41° 262° (W) 19:24:23 437.365/2234.400
RS-15 28 Jul 19:19:46 19:27:22 19° 264° (W) 19:34:58 29.354- 29.394
KKS-1 28 Jul 19:21:00 19:23:33 15° 302° (WNW) 19:26:06 437.445
CUTE 1.7 + AOD 2 28 Jul 19:22:53 19:24:49 13° 59° (ENE) 19:26:46 437.475
BEESAT 2 28 Jul 19:23:36 19:27:07 32° 118° (ESE) 19:30:41 435.950
PCSat 28 Jul 19:23:49 19:28:14 26° 109° (ESE) 19:32:40 145.827
HO-68 28 Jul 19:29:12 19:35:30 34° 58° (ENE) 19:41:49 435.675
PHONESAT 2.4 28 Jul 19:38:09 19:40:40 23° 179° (S) 19:43:12 2401.200-2431.200
Cubesat XI-IV 28 Jul 19:40:13 19:45:24 48° 261° (W) 19:50:37 437.490
CUBESAT XI-V 28 Jul 19:52:51 19:57:10 40° 291° (WNW) 20:01:27 437.345
CINEMA 3 28 Jul 19:53:47 19:57:53 33° 66° (ENE) 20:02:10 145.822/145.860
DOVE 4 28 Jul 19:54:01 19:58:21 85° 257° (WSW) 20:03:00 437.250
STARS 28 Jul 19:55:32 19:57:38 13° 303° (WNW) 19:59:43 437.465
SEEDS 28 Jul 19:57:38 20:00:43 20° 64° (ENE) 20:03:49 437.485
AO-85 28 Jul 19:58:48 19:59:04 10° 10° (N) 19:59:20 145.980
CUTE-I 28 Jul 20:04:01 20:08:43 31° 265° (W) 20:13:28 437.470
COMPASS 1 28 Jul 20:06:35 20:09:23 18° 63° (ENE) 20:12:12 437.405
GOMX 1 28 Jul 20:10:35 20:14:11 27° 267° (W) 20:17:56 467.674
NOAA 15 28 Jul 20:20:22 20:23:45 17° 270° (W) 20:27:10 137.62
FUNcube-1 28 Jul 20:22:57 20:23:22 10° 55° (NE) 20:23:47 145.935
ZACube-1 28 Jul 20:23:51 20:25:13 11° 56° (NE) 20:26:33 437.345
STRAND 1 28 Jul 20:24:26 20:28:59 31° 95° (E) 20:33:30 437.568
UWE-3 28 Jul 20:25:17 20:28:14 17° 60° (ENE) 20:31:13 435.000/436.395/437.385
Cosmos 2491 28 Jul 20:30:41 20:34:09 13° 70° (ENE) 20:37:37 435.465 / 435.565
AAUSAT CUBESAT 2 28 Jul 20:32:28 20:35:53 25° 66° (ENE) 20:39:18 437.432
LilacSat-2 28 Jul 20:34:11 20:35:04 11° 272° (W) 20:35:57 437.200
CANX-2 28 Jul 20:42:41 20:46:58 86° 79° (E) 20:51:16 2200.000
CUBEBUG 2 28 Jul 20:49:22 20:53:37 37° 68° (ENE) 20:57:59 437.445
BEESAT 3 28 Jul 20:52:13 20:55:31 25° 320° (NW) 20:58:51 437.485
YUBILEINY 28 Jul 20:53:28 21:01:55 46° 70° (ENE) 21:10:16 435.215
CUTE 1.7 + AOD 2 28 Jul 20:55:48 21:00:04 80° 258° (WSW) 21:04:22 437.475
NOAA 18 28 Jul 20:57:49 20:59:51 12° 274° (W) 21:01:53 137.9125
Oscar 11 28 Jul 20:59:44 21:03:06 22° 64° (ENE) 21:06:29 145.826/435.025
BEESAT 2 28 Jul 21:01:19 21:04:56 32° 317° (NW) 21:08:35 435.950
PCSat 28 Jul 21:05:57 21:11:17 57° 309° (NW) 21:16:39 145.827
PHONESAT 2.4 28 Jul 21:14:35 21:16:37 16° 196° (SSW) 21:18:38 2401.200-2431.200
